星链-37532(STARLINK-37532)

导读

STARLINK-37532(NORAD编号69468)是美国太空探索技术公司(SpaceX)星链星座的低地球轨道通信卫星,隶属于星链第二代组网序列。该卫星由猎鹰9号Block 5火箭搭载发射,主要承担全球卫星互联网覆盖服务任务,运行在近地轨道,轨道周期约94分钟,目前处于正常在轨运行状态。作为SpaceX规模化组网的组成部分,该卫星可为偏远地区、航空航海等场景提供低时延、高速率的互联网接入服务,支撑星链网络覆盖范围与服务容量的持续扩展。

基本信息
目录编号:
69468
目录名称:
STARLINK-37532
国际标识:
2026-127AB
轨道中心:
EARTH
卫星名称:
星链-37532
卫星全名:
星链-37532(STARLINK-37532)
卫星状态:
在轨 (已飞行96 天)
发射日期:
2026-06-08 UTC
国别 :
美国 (US)
星等 :
--
该卫星已列入 空间交会检测服务 Space Conjunction Data Service (SCDS) ,当前飞行风险评估等级: 无高风险
轨道信息
数据来源 国际轨道数据
星历时间: 2026-09-11T22:11:41+0800
17小时前
查看轨道信息
半长轴: 6837.843km
偏心率: 0.0001662
轨道倾角: 53.158°
近地点辐角 91.538°
升交点赤经 207.399°
平近点角 268.581°
近地点: 458.569km
远地点: 460.843km
周期: 93.786分钟
每日圈数: 15.354093
详细信息
固有亮度:
5
最大亮度:
2.5
卫星平台:
Starlink V1.0
覆盖范围:
全球
运营商:
太空探索技术公司
运营商所在国:
美国
制造商(研发单位):
太空探索技术公司
制造商所在国:
美国
使用方式:
暂无
卫星简介
Starlink 计划是 SpaceX 推出的全球卫星互联网项目,通过发射低轨道卫星,为全球尤其是偏远地区提供高速、低延迟的互联网服务。自 2019 年起,Starlink 已部署数千颗卫星,旨在缩小全球数字鸿沟,推动互联网普及。该项目还为军事、航空等行业提供通信支持,带来广泛经济效益。
2D轨道图
3D轨道图
轨道高度分析图
轨道倾角分析图
轨道综合分析图
查看轨道综合分析图
交会数据列表
事件ID 空间交会对象 最接近时刻(TCA) 交会距离 交会风险概率(CRP) 交会风险指数(CRI) 操作
CDM_260913-185905-892706-946821
OBJECT L (58927)
2026-09-13T
18:59:33+0000
2.343 km
极远距离
1.871845E-6 低风险 0.4
CDM_260913-203305-892706-946821
OBJECT L (58927)
2026-09-13T
20:33:22+0000
2.492 km
极远距离
1.666041E-6 低风险 0.39
CDM_260913-075305-469506-946821
OBJECT P (54695)
2026-09-13T
07:53:54+0000
2.568 km
极远距离
1.592329E-6 低风险 0.39
CDM_260913-092506-074006-946821
2026-09-13T
09:25:18+0000
2.811 km
极远距离
1.036971E-6 低风险 0.35
CDM_260914-010506-504006-946821
2026-09-14T
01:05:11+0000
2.723 km
极远距离
9.062673E-7 极低风险 0.34
CDM_260914-120806-689006-946821
2026-09-14T
12:08:30+0000
2.578 km
极远距离
6.987996E-7 极低风险 0.32
CDM_260913-220506-508906-946821
2026-09-13T
22:05:24+0000
2.893 km
极远距离
6.558357E-7 极低风险 0.31
CDM_260914-024405-177406-946821
2026-09-14T
02:44:42+0000
2.978 km
极远距离
3.959418E-7 极低风险 0.27
与全量物体交会距离演化趋势
与全量物体交会风险概率演化趋势